Regional Weather Roundup
Issued by NWS Grand Forks, ND

Home | Current Version | Previous Version | Graphics & Text | Print | Product List | Glossary On
Versions: 1 2 3 4 5 6 7 8 9 10 11 12 13 14 15 16 17 18 19 20 21 22 23 24 25 26 27 28 29 30 31 32 33 34 35 36 37 38 39 40 41 42 43 44 45 46 47 48 49 50
000
ASUS43 KFGF 180710
RWRFGF
PRAIRIE TO PINES  WEATHER ROUNDUP
NATIONAL WEATHER SERVICE EASTERN NORTH DAKOTA/GRAND FORKS ND
100 AM CST THU DEC 18 2014

 **SATELLITE DATA USED TO AUGMENT SKY COVER AT AUTOMATED STATIONS**
 *****  WEATHER ACROSS EASTERN NORTH DAKOTA  *****

CITY           SKY/WX    TMP DP  RH WIND       PRES   REMARKS
GRAND FORKS    PTCLDY     7   5  91 CALM      30.30F
GRAND FRKS AFB PTCLDY     4   3  97 S3        30.29F
DEVILS LAKE    PTCLDY     7  -2  66 SE6       30.20S WCI  -3
FARGO          PTCLDY     9   4  80 E6        30.29F WCI  -1
WAHPETON ARPT  MOSUNNY    9   5  85 CALM      30.31S
$$

 ***** WEATHER ACROSS CENTRAL AND WESTERN NORTH DAKOTA  *****

CITY           SKY/WX    TMP DP  RH WIND       PRES   REMARKS
BISMARCK       CLOUDY    17  12  80 S12       30.15F WCI   4
MINOT          PTCLDY     6   2  83 SE5       30.12F WCI  -3
JAMESTOWN      PTCLDY     8   5  87 SE6       30.22S WCI  -2
MINOT AFB      PTCLDY     2   0  93 SE7       30.12F WCI -11
GARRISON         N/A     14  11  87 E7        30.10F WCI   4
WILLISTON      CLOUDY    20  15  81 S8        30.05F WCI  10
DICKINSON      CLOUDY    20  16  84 S8        30.01S WCI  10
HETTINGER      CLOUDY    18  15  88 SE9       30.03F FOG     WCI   7
$$

 *****  OTHER AIRPORT OBSERVATIONS IN OUR AREA  *****

CITY           SKY/WX    TMP DP  RH WIND       PRES   REMARKS
WALHALLA         N/A      1   1 100 CALM      30.28F
GRAFTON AIRPOR NOT AVBL
VALLEY CITY AR FAIR       5   5 100 CALM      30.24F
CANDO          FAIR       0   0 100 SE6       30.22S WCI -12
CAVALIER APRT  FAIR       7   3  85 CALM      30.29F
GWINNER        SUNNY     10  10 100 MISG      30.27F
SHEYENNE NWR     N/A      3  -1  82 CALM      29.95S
ROLLA          FAIR       7   7 100 S12       30.17S WCI  -9
 ***** THE ABOVE OBSERVATIONS ARE NON NWS ARE NOT QUALITY
       CONTROLLED AND MAY MIS-REPORT RAIN FOR SNOW...
$$

  *****  WEATHER ACROSS NORTHERN MINNESOTA  *****

CITY           SKY/WX    TMP DP  RH WIND       PRES   REMARKS
FLAG ISLAND    MOCLDY    10   3  72 SE3       30.31S
WARROAD        PTCLDY     7   1  78 E5        30.30F WCI  -2
ROSEAU         PTCLDY     7   1  78 CALM      30.30F
HALLOCK        PTCLDY     5   1  85 E5        30.29F WCI  -4
THF RVR FALLS  PTCLDY     9   7  92 CALM      30.29F
BAUDETTE       MOCLDY     3  -1  83 CALM      30.30F
WASKISH        MOCLDY     1   0  92 CALM      30.30F
CROOKSTON      PTCLDY     9   7  92 E5        30.31F WCI   0
STEPHEN NDAWN    N/A      1   0  92 SE3         N/A
GREENBUSH NDAW   N/A      9   7  92 SE2         N/A
$$
  *****  WEATHER ACROSS CENTRAL AND WEST MINNESOTA  *****

CITY           SKY/WX    TMP DP  RH WIND       PRES   REMARKS
FOSSTON        PTCLDY     3   1  92 CALM      30.28S
BEMIDJI        PTCLDY     2  -1  85 CALM      30.27F
PARK RAPIDS    PTCLDY     3  -1  83 CALM      30.27S
ELBOW LAKE     FAIR       9   7  92 E5        30.29S WCI   0
WADENA         PTCLDY     1   0  92 CALM      30.28R
DETROIT LAKES  PTCLDY     9   5  85 SW3       30.29S
MOORHEAD       PTCLDY     9   9 100 E5        30.30F WCI   0
FERGUS FALLS   CLEAR      7   3  85 E5        30.33S WCI  -2
MORRIS MN      PTCLDY     7   3  85 E5        30.29S WCI  -2
STAPLES        PTCLDY     5   3  92 CALM      30.28S
$$
  *****  WEATHER ELSEWHERE ACROSS MINNESOTA  *****

CITY           SKY/WX    TMP DP  RH WIND       PRES   REMARKS
DULUTH         FLURRIES  18  13  80 NW3       30.28S
INTRNTL FALLS  PTCLDY     1  -4  79 CALM      30.31F
ELY            PTCLDY    -4  -8  84 CALM      30.30S
CLOQUET        FLURRIES  16  14  93 CALM      30.30R
WHEATON        PTCLDY     1   0  92 CALM      30.32F
BRAINERD       PTCLDY     2  -1  88 CALM      30.30S
HIBBING        MOCLDY     3  -2  79 CALM      30.30R
ALEXANDRIA     PTCLDY     8   5  87 E3        30.28F
SAINT CLOUD    PTCLDY    12   7  80 CALM      30.32R
MINNEAPOLIS    MOCLDY    14   9  80 CALM      30.34R
$$

  *****  WEATHER ACROSS SOUTH DAKOTA  *****

CITY           SKY/WX    TMP DP  RH WIND       PRES   REMARKS
SIOUX FALLS    CLOUDY    15  11  83 NE3       30.26S
BROOKINGS      NOT AVBL
WATERTOWN      CLOUDY     8   4  83 CALM      30.22F
HURON          CLOUDY    15  10  80 SE7       30.24F WCI   5
SISSETON         N/A      0  -4  83 CALM      30.28F
ABERDEEN       CLOUDY    14   9  80 SE5       30.25F WCI   6
MITCHELL       CLOUDY    17  13  84 SE6       30.26F WCI   9
PIERRE         CLOUDY    18  16  92 SE13      30.14F FOG     WCI   5
MOBRIDGE       CLOUDY    17  14  88 SE9       30.12F WCI   6
RAPID CITY     CLOUDY    22  20  92 SE6       30.00F WCI  14
$$

  *****  SOME WEATHER IN NEARBY STATES *****

CITY           SKY/WX    TMP DP  RH WIND       PRES   REMARKS
GLASGOW MT     LGT SNOW  24  20  84 E9        29.97S FOG     WCI  14
GREAT FALLS MT PTCLDY    31  24  75 SW12      29.89S WCI  22
CHEYENNE WY    PTCLDY    24  15  68 W12       29.95F WCI  13
SCOTTSBLUFF NE FOG       16  14  92 NE5       30.02S VSB 1/4 WCI   9
OMAHA NE       CLOUDY    28  20  71 E6        30.26F WCI  22
DES MOINES IA  CLOUDY    23  16  74 CALM      30.29F
DAVENPORT IA   PTCLDY    14  10  84 NE7       30.28F WCI   4
CHICAGO IL     CLOUDY    24  15  68 N8        30.28F WCI  15
EAU CLAIRE WI  CLOUDY    20  14  77 CALM      30.31R
LA CROSSE WI   CLOUDY    19  13  77 NW5       30.32F WCI  12
$$

  *****  SOME NATIONAL WEATHER *****

CITY           SKY/WX    TMP DP  RH WIND       PRES   REMARKS
LA GUARDIA NY  CLOUDY    41  26  55 W13G25    29.88R
RALEIGH NC     MOCLDY    38  32  79 CALM      30.09R
ATLANTA GA     CLOUDY    39  33  79 NW10      30.11F
NEW ORLEANS LA MOCLDY    50  41  71 E3        30.17S
OKLAHOMA CITY  DRIZZLE   39  36  87 S10       30.11F FOG
ALBUQUERQUE NM PTCLDY    36  31  82 S6        30.11F
SALT LAKE CITY CLOUDY    34  31  88 E5        30.07S
LOS ANGELES CA PTCLDY    55  45  68 CALM      30.11S
BOISE ID       CLOUDY    39  33  79 CALM      30.04R
SEATTLE WA     CLOUDY    45  43  93 CALM      29.93R
$$

*** WEATHER ACROSS MANITOBA...SASKATCHEWAN AND ONTARIO ***
                ***ONTARIO***

CITY           SKY/WX    TMP DP  RH WIND       PRES   REMARKS
GERALDTON      CLEAR     -8 -11  84 W2        30.30S
THUNDER BAY    NOT AVBL
SIOUX LOOKOUT  NOT AVBL
TORONTO        CLOUDY    32  27  80 W10G17    30.00R WCI  24
BIG TROUT LK   CLEAR     -4  -6  92 SW6       30.25F WCI -16
PICKLE LAKE    NOT AVBL
DRYDEN         CLEAR     -8 -11  84 E5        30.31F WCI -19
KENORA         NOT AVBL
$$
                *** MANITOBA***

CITY           SKY/WX    TMP DP  RH WIND       PRES   REMARKS
BRANDON        NOT AVBL
DAUPHIN        CLEAR      3   1  92 SW6       30.18F WCI  -8
ISLAND LAKE    CLEAR     -2  -8  78 S3        30.25S
PILOT MOUND      N/A     -2  -4  92 SE6         N/A  WCI -14
THE PAS        CLOUDY     1  -2  85 SE6       30.09F WCI -10
THOMPSON       FLURRIES   9   5  85 S8        30.10F WCI  -4
WINNIPEG       NOT AVBL
LYNN LAKE      FLURRIES  14  12  92 S9        29.98F WCI   2
GILLAM         FLURRIES   3   0  85 SW10      30.13S WCI -12
$$
                ***SASKATCHEWAN***

CITY           SKY/WX    TMP DP  RH WIND       PRES   REMARKS
ESTEVAN        FLURRIES  16  12  86 S10       30.07F WCI   3
KINDERSLEY     CRYSTALS  14  12  92 S5        29.86F FOG     WCI   6
LLOYDMINSTER   CLOUDY    18  16  93 SE6       29.86F FOG     WCI   9
PRINCE ALBERT  FLURRIES  18  14  86 SW5       30.00F WCI  11
REGINA         CLOUDY    18  16  93 S14G22    30.02F WCI   4
YORKTON        FLURRIES  12   9  85 S8        30.07F WCI   1
N. BATTLEFORD  CLOUDY    19  18  93 SE7       29.94F WCI  10
LA RONGE       NOT AVBL
SASKATOON      CLOUDY    19  18  93 S10       29.97F WCI   8
SWIFT CURRENT  FLURRIES  23  23 100 SW17      29.86F WCI   9
$$
NOTE: THESE ARE AUTOMATED STATIONS WITH LIMITED QUALITY CONTROL
      "FAIR" INDICATES FEW OR NO CLOUDS BELOW 12,000 FEET WITH NO
      SIGNIFICANT WEATHER AND/OR OBSTRUCTIONS TO VISIBILITY.
      SKY/WX - SKY CONDITION AND SIGNIFICANT WEATHER.
      TMP - AIR TEMPERATURE.    DP   - DEWPOINT TEMPERATURE.
      RH  - RELATIVE HUMIDITY.  PRES - PRESSURE.
      HX  - HEAT INDEX.         WCI  - WIND CHILL INDEX.
$


USA.gov is the U.S. government's official web portal to all federal, state and local government web resources and services.